• In Hungary
  • List of Countries
  • For 7 days
  • Water Temperature
  • Satellite Maps
  • Weather Map
  • News
  • Weather Widgets
  • user-avatar
    Login

    Hourly Weather Stynowszczyzna

    Today, 16 July, Monday

    Time Temperature Precipitation Wind Pressure Humidity
    00:00 +18°C° 0 mm 3 mps 743 mmHg 96%
    01:00 +17°C° 0 mm 3 mps 743 mmHg 96%
    02:00 +17°C° 0 mm 2 mps 743 mmHg 97%
    03:00 +17°C° 0.1 mm 2 mps 743 mmHg 97%
    04:00 +17°C° 0.1 mm 2 mps 743 mmHg 97%
    05:00 +17°C° 0.1 mm 2 mps 743 mmHg 98%
    06:00 +18°C° 0.8 mm 3 mps 743 mmHg 95%
    07:00 +19°C° 0.8 mm 3 mps 743 mmHg 92%
    08:00 +20°C° 0.8 mm 3 mps 743 mmHg 89%
    09:00 +21°C° 1.1 mm 3 mps 743 mmHg 85%
    10:00 +22°C° 1.1 mm 4 mps 743 mmHg 80%
    11:00 +23°C° 1.1 mm 4 mps 742 mmHg 76%
    12:00 +23°C° 0.9 mm 4 mps 742 mmHg 75%
    13:00 +25°C° 0.9 mm 4 mps 742 mmHg 74%
    14:00 +25°C° 0.9 mm 4 mps 742 mmHg 73%
    15:00 +25°C° 0.9 mm 4 mps 742 mmHg 76%
    16:00 +23°C° 0.9 mm 4 mps 741 mmHg 79%
    17:00 +23°C° 0.9 mm 4 mps 741 mmHg 81%
    18:00 +22°C° 0.2 mm 3 mps 741 mmHg 85%
    19:00 +21°C° 0.2 mm 3 mps 741 mmHg 89%
    20:00 +20°C° 0.2 mm 2 mps 741 mmHg 92%
    21:00 +19°C° 0 mm 2 mps 740 mmHg 94%
    22:00 +18°C° 0 mm 2 mps 740 mmHg 95%
    23:00 +19°C° 0 mm 1 mps 740 mmHg 96%

    Tomorrow, 17 July, Tuesday

    Time Temperature Precipitation Wind Pressure Humidity
    00:00 +18°C° 0 mm 1 mps 740 mmHg 97%
    01:00 +18°C° 0 mm 1 mps 740 mmHg 97%
    02:00 +18°C° 0 mm 1 mps 740 mmHg 97%
    03:00 +16°C° 0 mm 1 mps 740 mmHg 97%
    04:00 +16°C° 0 mm 1 mps 740 mmHg 97%
    05:00 +16°C° 0 mm 1 mps 740 mmHg 97%
    06:00 +18°C° 0 mm 1 mps 740 mmHg 94%
    07:00 +18°C° 0 mm 2 mps 740 mmHg 92%
    08:00 +19°C° 0 mm 2 mps 740 mmHg 89%
    09:00 +20°C° 0.1 mm 2 mps 740 mmHg 87%
    10:00 +21°C° 0.1 mm 2 mps 740 mmHg 84%
    11:00 +21°C° 0.1 mm 2 mps 740 mmHg 81%
    12:00 +21°C° 0.8 mm 2 mps 739 mmHg 84%
    13:00 +21°C° 0.8 mm 2 mps 739 mmHg 87%
    14:00 +21°C° 0.8 mm 2 mps 739 mmHg 89%
    15:00 +20°C° 1.4 mm 3 mps 739 mmHg 91%
    16:00 +20°C° 1.4 mm 3 mps 738 mmHg 93%
    17:00 +20°C° 1.4 mm 3 mps 738 mmHg 94%
    18:00 +20°C° 1.4 mm 3 mps 738 mmHg 95%
    19:00 +20°C° 1.4 mm 3 mps 738 mmHg 95%
    20:00 +20°C° 1.4 mm 3 mps 738 mmHg 96%
    21:00 +20°C° 0.6 mm 3 mps 737 mmHg 96%
    22:00 +20°C° 0.6 mm 3 mps 737 mmHg 97%
    23:00 +20°C° 0.6 mm 3 mps 737 mmHg 97%

    Day after tomorrow, 18 July, Wednesday

    Time Temperature Precipitation Wind Pressure Humidity
    00:00 +20°C° 0 mm 3 mps 737 mmHg 97%
    01:00 +20°C° 0 mm 3 mps 737 mmHg 98%
    02:00 +20°C° 0 mm 3 mps 737 mmHg 98%
    03:00 +19°C° 0.1 mm 3 mps 737 mmHg 98%
    04:00 +19°C° 0.1 mm 3 mps 737 mmHg 98%
    05:00 +19°C° 0.1 mm 3 mps 737 mmHg 98%
    06:00 +20°C° 0 mm 3 mps 737 mmHg 96%
    07:00 +21°C° 0 mm 3 mps 738 mmHg 94%
    08:00 +22°C° 0 mm 4 mps 738 mmHg 92%
    09:00 +23°C° 0 mm 4 mps 738 mmHg 87%
    10:00 +25°C° 0 mm 4 mps 738 mmHg 82%
    11:00 +27°C° 0 mm 4 mps 739 mmHg 77%
    12:00 +27°C° 0.7 mm 4 mps 739 mmHg 76%
    13:00 +27°C° 0.7 mm 4 mps 739 mmHg 75%
    14:00 +28°C° 0.7 mm 4 mps 739 mmHg 75%
    15:00 +28°C° 0.6 mm 3 mps 739 mmHg 74%
    16:00 +28°C° 0.6 mm 3 mps 739 mmHg 74%
    17:00 +28°C° 0.6 mm 3 mps 739 mmHg 73%
    18:00 +27°C° 0.5 mm 2 mps 739 mmHg 78%
    19:00 +26°C° 0.5 mm 2 mps 739 mmHg 82%
    20:00 +25°C° 0.5 mm 2 mps 739 mmHg 87%
    21:00 +24°C° 0.4 mm 2 mps 740 mmHg 89%
    22:00 +23°C° 0.4 mm 2 mps 740 mmHg 91%
    23:00 +21°C° 0.4 mm 2 mps 740 mmHg 94%

    19 July, Thursday

    Time Temperature Precipitation Wind Pressure Humidity
    00:00 +21°C° 0.1 mm 2 mps 740 mmHg 94%
    01:00 +21°C° 0.1 mm 2 mps 740 mmHg 95%
    02:00 +21°C° 0.1 mm 2 mps 741 mmHg 96%
    03:00 +20°C° 0 mm 2 mps 741 mmHg 96%
    04:00 +20°C° 0 mm 2 mps 741 mmHg 97%
    05:00 +20°C° 0 mm 2 mps 741 mmHg 97%
    06:00 +21°C° 0.1 mm 3 mps 741 mmHg 95%
    07:00 +22°C° 0.1 mm 3 mps 742 mmHg 92%
    08:00 +24°C° 0.1 mm 3 mps 742 mmHg 89%
    09:00 +25°C° 0.6 mm 4 mps 742 mmHg 85%
    10:00 +26°C° 0.6 mm 4 mps 742 mmHg 82%
    11:00 +27°C° 0.6 mm 4 mps 742 mmHg 78%
    12:00 +27°C° 0.9 mm 4 mps 742 mmHg 77%
    13:00 +28°C° 0.9 mm 4 mps 742 mmHg 75%
    14:00 +28°C° 0.9 mm 5 mps 742 mmHg 74%
    15:00 +28°C° 0.3 mm 5 mps 742 mmHg 73%
    16:00 +28°C° 0.3 mm 5 mps 742 mmHg 72%
    17:00 +28°C° 0.3 mm 5 mps 742 mmHg 71%
    18:00 +27°C° 0.3 mm 4 mps 742 mmHg 75%
    19:00 +26°C° 0.3 mm 4 mps 742 mmHg 80%
    20:00 +25°C° 0.3 mm 3 mps 742 mmHg 85%
    21:00 +24°C° 0.1 mm 3 mps 742 mmHg 87%
    22:00 +22°C° 0.1 mm 3 mps 743 mmHg 90%
    23:00 +21°C° 0.1 mm 3 mps 743 mmHg 93%

    20 July, Friday

    Time Temperature Precipitation Wind Pressure Humidity
    00:00 +21°C° 0 mm 3 mps 743 mmHg 94%
    01:00 +20°C° 0 mm 3 mps 743 mmHg 95%
    02:00 +20°C° 0 mm 3 mps 743 mmHg 96%
    03:00 +20°C° 0 mm 3 mps 743 mmHg 96%
    04:00 +19°C° 0 mm 3 mps 743 mmHg 97%
    05:00 +19°C° 0 mm 3 mps 743 mmHg 97%
    06:00 +20°C° 0 mm 3 mps 744 mmHg 94%
    07:00 +21°C° 0 mm 3 mps 744 mmHg 91%
    08:00 +22°C° 0 mm 3 mps 744 mmHg 87%
    09:00 +24°C° 0.6 mm 3 mps 744 mmHg 82%
    10:00 +26°C° 0.6 mm 2 mps 744 mmHg 76%
    11:00 +27°C° 0.6 mm 2 mps 744 mmHg 70%
    12:00 +27°C° 0.4 mm 2 mps 744 mmHg 67%
    13:00 +28°C° 0.4 mm 2 mps 744 mmHg 64%
    14:00 +28°C° 0.4 mm 2 mps 744 mmHg 61%
    15:00 +28°C° 0.2 mm 2 mps 744 mmHg 62%
    16:00 +28°C° 0.2 mm 2 mps 744 mmHg 62%
    17:00 +29°C° 0.2 mm 2 mps 744 mmHg 63%
    18:00 +27°C° 0.2 mm 2 mps 744 mmHg 68%
    19:00 +26°C° 0.2 mm 2 mps 744 mmHg 72%
    20:00 +25°C° 0.2 mm 1 mps 744 mmHg 77%
    21:00 +24°C° 0.3 mm 1 mps 744 mmHg 80%
    22:00 +23°C° 0.3 mm 1 mps 744 mmHg 82%
    23:00 +22°C° 0.3 mm 1 mps 744 mmHg 85%

    21 July, Saturday

    Time Temperature Precipitation Wind Pressure Humidity
    00:00 +21°C° 0.1 mm 2 mps 745 mmHg 86%
    01:00 +20°C° 0.1 mm 2 mps 745 mmHg 88%
    02:00 +20°C° 0.1 mm 2 mps 745 mmHg 89%
    03:00 +20°C° 0 mm 1 mps 745 mmHg 90%
    04:00 +20°C° 0 mm 1 mps 745 mmHg 91%
    05:00 +20°C° 0 mm 1 mps 745 mmHg 92%
    06:00 +21°C° 0 mm 1 mps 745 mmHg 88%
    07:00 +23°C° 0 mm 1 mps 745 mmHg 83%
    08:00 +24°C° 0 mm 2 mps 745 mmHg 79%
    09:00 +25°C° 0.3 mm 2 mps 746 mmHg 74%
    10:00 +26°C° 0.3 mm 2 mps 746 mmHg 69%
    11:00 +28°C° 0.3 mm 2 mps 746 mmHg 64%
    12:00 +28°C° 0.5 mm 2 mps 746 mmHg 62%
    13:00 +29°C° 0.5 mm 2 mps 745 mmHg 60%
    14:00 +29°C° 0.5 mm 2 mps 745 mmHg 58%
    15:00 +29°C° 0.3 mm 1 mps 745 mmHg 58%
    16:00 +29°C° 0.3 mm 1 mps 745 mmHg 58%
    17:00 +29°C° 0.3 mm 1 mps 745 mmHg 58%
    18:00 +28°C° 0 mm 1 mps 745 mmHg 63%
    19:00 +26°C° 0 mm 1 mps 745 mmHg 68%
    20:00 +25°C° 0 mm 1 mps 745 mmHg 72%
    21:00 +24°C° 0.1 mm 1 mps 745 mmHg 74%
    22:00 +23°C° 0.1 mm 1 mps 745 mmHg 76%
    23:00 +22°C° 0.1 mm 1 mps 745 mmHg 78%
    Show more